Time,TemperatureF,DewpointF,PressureIn,WindDirection,WindDirectionDegrees,WindSpeedMPH,WindSpeedGustMPH,Humidity,HourlyPrecipIn,Conditions,Clouds,dailyrainin,SolarRadiationWatts/m^2,SoftwareType,DateUTC
2013-12-09 00:00:00,27.9,26.1,30.12,WNW,290,4.0,8.0,93,0.00,,CLR,0.01,0.00,VWS V14.01,2013-12-09 06:00:00,
2013-12-09 00:03:00,27.8,26.0,30.12,WNW,296,4.0,9.0,93,0.00,,OVC012,0.00,0.00,VWS V14.01,2013-12-09 06:03:00,
2013-12-09 00:05:00,27.8,26.0,30.12,West,275,2.0,9.0,93,0.00,,CLR,0.00,0.00,VWS V14.01,2013-12-09 06:05:00,
2013-12-09 00:08:00,27.8,26.0,30.12,West,262,4.0,5.0,93,0.00,,OVC012,0.00,0.00,VWS V14.01,2013-12-09 06:08:00,
2013-12-09 00:10:00,27.8,26.0,30.12,West,274,4.0,5.0,93,0.00,,CLR,0.00,0.00,VWS V14.01,2013-12-09 06:10:00,
2013-12-09 00:14:00,27.8,26.3,30.12,WSW,256,4.0,7.0,94,0.00,,OVC012,0.00,0.00,VWS V14.01,2013-12-09 06:14:00,
2013-12-09 00:15:00,27.7,26.2,30.12,West,263,5.0,12.0,94,0.00,,CLR,0.00,0.00,VWS V14.01,2013-12-09 06:15:00,
2013-12-09 00:19:00,27.7,25.9,30.12,West,277,3.0,6.0,93,0.00,,OVC012,0.00,0.00,VWS V14.01,2013-12-09 06:19:00,
2013-12-09 00:20:00,27.7,25.9,30.12,West,269,7.0,9.0,93,0.00,,CLR,0.00,0.00,VWS V14.01,2013-12-09 06:20:00,
2013-12-09 00:24:00,27.5,25.8,30.12,West,274,3.0,7.0,93,0.00,,OVC012,0.00,0.00,VWS V14.01,2013-12-09 06:24:00,
2013-12-09 00:25:00,27.4,25.6,30.12,West,266,4.0,8.0,93,0.00,,CLR,0.00,0.00,VWS V14.01,2013-12-09 06:25:00,
2013-12-09 00:29:00,27.4,25.4,30.12,West,269,5.0,6.0,92,0.00,,OVC012,0.00,0.00,VWS V14.01,2013-12-09 06:29:00,
2013-12-09 00:30:00,27.3,25.3,30.12,West,279,4.0,8.0,92,0.00,,CLR,0.00,0.00,VWS V14.01,2013-12-09 06:30:00,
2013-12-09 00:34:00,27.2,25.2,30.12,WSW,257,4.0,10.0,92,0.00,,OVC015,0.00,0.00,VWS V14.01,2013-12-09 06:34:00,
2013-12-09 00:35:00,27.2,25.2,30.12,West,272,3.0,10.0,92,0.00,,CLR,0.00,0.00,VWS V14.01,2013-12-09 06:35:00,
2013-12-09 00:39:00,27.1,25.1,30.12,West,277,3.0,8.0,92,0.00,,OVC015,0.00,0.00,VWS V14.01,2013-12-09 06:39:00,
2013-12-09 00:40:00,27.1,25.1,30.12,West,278,4.0,8.0,92,0.00,,CLR,0.00,0.00,VWS V14.01,2013-12-09 06:40:00,
2013-12-09 00:44:00,27.0,25.0,30.12,West,261,5.0,7.0,92,0.00,,OVC015,0.00,0.00,VWS V14.01,2013-12-09 06:44:00,
2013-12-09 00:45:00,27.0,24.7,30.12,WNW,298,4.0,7.0,91,0.00,,CLR,0.00,0.00,VWS V14.01,2013-12-09 06:45:00,
2013-12-09 00:49:00,26.9,24.6,30.12,NW,309,2.0,6.0,91,0.00,,OVC015,0.00,0.00,VWS V14.01,2013-12-09 06:49:00,
2013-12-09 00:50:00,26.9,24.6,30.12,West,269,4.0,6.0,91,0.00,,CLR,0.00,0.00,VWS V14.01,2013-12-09 06:50:00,
2013-12-09 00:54:00,26.9,24.6,30.12,WNW,291,3.0,5.0,91,0.00,,OVC015,0.00,0.00,VWS V14.01,2013-12-09 06:54:00,
2013-12-09 00:55:00,26.9,24.6,30.12,West,259,2.0,5.0,91,0.00,,CLR,0.00,0.00,VWS V14.01,2013-12-09 06:55:00,
2013-12-09 00:59:00,26.9,24.6,30.12,West,271,2.0,3.0,91,0.00,,OVC015,0.00,0.00,VWS V14.01,2013-12-09 06:59:00,
2013-12-09 01:00:00,26.8,24.5,30.12,WNW,285,1.0,3.0,91,0.00,,CLR,0.00,0.00,VWS V14.01,2013-12-09 07:00:00,
2013-12-09 01:04:00,26.7,24.4,30.12,NW,304,1.0,3.0,91,0.00,,SCT023,0.00,0.00,VWS V14.01,2013-12-09 07:04:00,
2013-12-09 01:05:00,26.7,24.4,30.12,NW,304,1.0,3.0,91,0.00,,CLR,0.00,0.00,VWS V14.01,2013-12-09 07:05:00,
2013-12-09 01:09:00,26.6,24.3,30.12,West,272,3.0,4.0,91,0.00,,SCT023,0.00,0.00,VWS V14.01,2013-12-09 07:09:00,
2013-12-09 01:10:00,26.6,24.3,30.12,West,273,1.0,4.0,91,0.00,,CLR,0.00,0.00,VWS V14.01,2013-12-09 07:10:00,
2013-12-09 01:14:00,26.4,24.1,30.12,West,273,0.0,2.0,91,0.00,,SCT023,0.00,0.00,VWS V14.01,2013-12-09 07:14:00,
2013-12-09 01:15:00,26.4,24.1,30.12,West,273,0.0,2.0,91,0.00,,CLR,0.00,0.00,VWS V14.01,2013-12-09 07:15:00,
2013-12-09 01:19:00,26.3,24.0,30.12,West,273,0.0,1.0,91,0.00,,SCT023,0.00,0.00,VWS V14.01,2013-12-09 07:19:00,
2013-12-09 01:20:00,26.3,24.0,30.12,West,273,0.0,1.0,91,0.00,,CLR,0.00,0.00,VWS V14.01,2013-12-09 07:20:00,
2013-12-09 01:24:00,26.1,23.8,30.12,West,273,0.0,2.0,91,0.00,,SCT023,0.00,0.00,VWS V14.01,2013-12-09 07:24:00,
2013-12-09 01:25:00,26.0,23.7,30.12,WNW,282,0.0,2.0,91,0.00,,CLR,0.00,0.00,VWS V14.01,2013-12-09 07:25:00,
2013-12-09 01:29:00,25.9,23.6,30.12,WSW,254,0.0,2.0,91,0.00,,SCT023,0.00,0.00,VWS V14.01,2013-12-09 07:29:00,
2013-12-09 01:30:00,25.8,23.5,30.13,WSW,254,0.0,2.0,91,0.00,,CLR,0.00,0.00,VWS V14.01,2013-12-09 07:30:00,
2013-12-09 01:34:00,25.7,23.4,30.13,West,281,0.0,4.0,91,0.00,,BKN026,0.00,0.00,VWS V14.01,2013-12-09 07:34:00,
2013-12-09 01:35:00,25.6,23.3,30.13,West,281,2.0,4.0,91,0.00,,CLR,0.00,0.00,VWS V14.01,2013-12-09 07:35:00,
2013-12-09 01:39:00,25.5,23.2,30.13,West,278,1.0,3.0,91,0.00,,BKN026,0.00,0.00,VWS V14.01,2013-12-09 07:39:00,
2013-12-09 01:40:00,25.4,23.4,30.13,West,278,0.0,3.0,92,0.00,,CLR,0.00,0.00,VWS V14.01,2013-12-09 07:40:00,
2013-12-09 01:44:00,25.4,23.4,30.13,West,278,1.0,3.0,92,0.00,,BKN026,0.00,0.00,VWS V14.01,2013-12-09 07:44:00,
2013-12-09 01:45:00,25.3,23.3,30.14,West,279,2.0,3.0,92,0.00,,CLR,0.00,0.00,VWS V14.01,2013-12-09 07:45:00,
2013-12-09 01:49:00,25.3,23.3,30.14,WNW,294,0.0,3.0,92,0.00,,BKN026,0.00,0.00,VWS V14.01,2013-12-09 07:49:00,
2013-12-09 01:50:00,25.3,23.3,30.14,NNW,333,0.0,3.0,92,0.00,,CLR,0.00,0.00,VWS V14.01,2013-12-09 07:50:00,
2013-12-09 01:54:00,25.2,23.2,30.14,NW,322,1.0,5.0,92,0.00,,BKN026,0.00,0.00,VWS V14.01,2013-12-09 07:54:00,
2013-12-09 01:55:00,25.2,23.2,30.14,West,273,0.0,5.0,92,0.00,,CLR,0.00,0.00,VWS V14.01,2013-12-09 07:55:00,
2013-12-09 01:59:00,25.2,23.2,30.14,West,261,1.0,4.0,92,0.00,,BKN026,0.00,0.00,VWS V14.01,2013-12-09 07:59:00,
2013-12-09 02:00:00,25.2,23.2,30.14,WNW,296,1.0,4.0,92,0.00,,CLR,0.00,0.00,VWS V14.01,2013-12-09 08:00:00,
2013-12-09 02:04:00,25.2,23.2,30.14,WNW,295,0.0,3.0,92,0.00,,OVC016,0.00,0.00,VWS V14.01,2013-12-09 08:04:00,
2013-12-09 02:05:00,25.2,23.2,30.14,WNW,295,1.0,3.0,92,0.00,,CLR,0.00,0.00,VWS V14.01,2013-12-09 08:05:00,
2013-12-09 02:09:00,25.1,23.1,30.14,WNW,295,0.0,1.0,92,0.00,,OVC016,0.00,0.00,VWS V14.01,2013-12-09 08:09:00,
2013-12-09 02:10:00,25.1,23.1,30.14,WNW,295,0.0,1.0,92,0.00,,CLR,0.00,0.00,VWS V14.01,2013-12-09 08:10:00,
2013-12-09 02:14:00,25.1,23.1,30.14,WNW,295,0.0,2.0,92,0.00,,OVC016,0.00,0.00,VWS V14.01,2013-12-09 08:14:00,
2013-12-09 02:15:00,25.1,23.1,30.14,WNW,295,0.0,2.0,92,0.00,,CLR,0.00,0.00,VWS V14.01,2013-12-09 08:15:00,
2013-12-09 02:19:00,25.1,23.1,30.14,WNW,296,0.0,3.0,92,0.00,,OVC016,0.00,0.00,VWS V14.01,2013-12-09 08:19:00,
2013-12-09 02:20:00,25.1,23.1,30.14,WNW,296,0.0,3.0,92,0.00,,CLR,0.00,0.00,VWS V14.01,2013-12-09 08:20:00,
2013-12-09 02:24:00,25.1,23.1,30.14,WNW,296,1.0,2.0,92,0.00,,OVC016,0.00,0.00,VWS V14.01,2013-12-09 08:24:00,
2013-12-09 02:25:00,25.1,23.1,30.14,WNW,296,0.0,2.0,92,0.00,,CLR,0.00,0.00,VWS V14.01,2013-12-09 08:25:00,
2013-12-09 02:29:00,25.1,23.1,30.14,WNW,284,3.0,5.0,92,0.00,,OVC016,0.00,0.00,VWS V14.01,2013-12-09 08:29:00,
2013-12-09 02:30:00,25.1,23.1,30.14,West,277,1.0,6.0,92,0.00,,CLR,0.00,0.00,VWS V14.01,2013-12-09 08:30:00,
2013-12-09 02:34:00,25.1,22.9,30.14,West,277,0.0,2.0,91,0.00,,OVC016,0.00,0.00,VWS V14.01,2013-12-09 08:34:00,
2013-12-09 02:35:00,25.1,22.9,30.14,West,277,0.0,2.0,91,0.00,,CLR,0.00,0.00,VWS V14.01,2013-12-09 08:35:00,
2013-12-09 02:39:00,25.0,22.8,30.14,NW,317,1.0,8.0,91,0.00,,OVC016,0.00,0.00,VWS V14.01,2013-12-09 08:39:00,
2013-12-09 02:40:00,25.0,22.5,30.14,NW,317,1.0,8.0,90,0.00,,CLR,0.00,0.00,VWS V14.01,2013-12-09 08:40:00,
2013-12-09 02:44:00,25.0,22.5,30.14,West,264,2.0,3.0,90,0.00,,OVC016,0.00,0.00,VWS V14.01,2013-12-09 08:44:00,
2013-12-09 02:45:00,25.0,22.5,30.15,NW,313,2.0,3.0,90,0.00,,CLR,0.00,0.00,VWS V14.01,2013-12-09 08:45:00,
2013-12-09 02:49:00,24.9,22.4,30.15,West,274,4.0,8.0,90,0.00,,OVC016,0.00,0.00,VWS V14.01,2013-12-09 08:49:00,
2013-12-09 02:50:00,25.0,22.5,30.15,West,265,4.0,8.0,90,0.00,,CLR,0.00,0.00,VWS V14.01,2013-12-09 08:50:00,
2013-12-09 02:54:00,24.9,22.1,30.15,West,267,7.0,9.0,89,0.00,,OVC016,0.00,0.00,VWS V14.01,2013-12-09 08:54:00,
2013-12-09 02:55:00,24.9,22.1,30.15,NNE,23,0.0,9.0,89,0.00,,CLR,0.00,0.00,VWS V14.01,2013-12-09 08:55:00,
2013-12-09 02:59:00,24.9,22.1,30.15,West,261,2.0,2.0,89,0.00,,OVC016,0.00,0.00,VWS V14.01,2013-12-09 08:59:00,
2013-12-09 03:00:00,24.9,22.1,30.15,NW,309,1.0,5.0,89,0.00,,CLR,0.00,0.00,VWS V14.01,2013-12-09 09:00:00,
2013-12-09 03:03:00,24.9,22.1,30.15,WNW,283,0.0,3.0,89,0.00,,OVC015,0.00,0.00,VWS V14.01,2013-12-09 09:03:00,
2013-12-09 03:05:00,24.9,22.1,30.15,WNW,286,0.0,3.0,89,0.00,,CLR,0.00,0.00,VWS V14.01,2013-12-09 09:05:00,
2013-12-09 03:08:00,24.9,22.1,30.15,WNW,288,2.0,2.0,89,0.00,,OVC015,0.00,0.00,VWS V14.01,2013-12-09 09:08:00,
2013-12-09 03:10:00,24.9,22.1,30.15,WNW,288,0.0,2.0,89,0.00,,CLR,0.00,0.00,VWS V14.01,2013-12-09 09:10:00,
2013-12-09 03:14:00,24.9,22.1,30.15,WNW,288,1.0,1.0,89,0.00,,OVC015,0.00,0.00,VWS V14.01,2013-12-09 09:14:00,
2013-12-09 03:15:00,24.9,22.1,30.16,WNW,288,0.0,1.0,89,0.00,,CLR,0.00,0.00,VWS V14.01,2013-12-09 09:15:00,
2013-12-09 03:19:00,24.9,22.1,30.16,NW,320,2.0,4.0,89,0.00,,OVC015,0.00,0.00,VWS V14.01,2013-12-09 09:19:00,
2013-12-09 03:20:00,24.8,22.0,30.16,NW,317,2.0,4.0,89,0.00,,CLR,0.00,0.00,VWS V14.01,2013-12-09 09:20:00,
2013-12-09 03:24:00,24.8,22.0,30.16,WNW,286,1.0,6.0,89,0.00,,OVC015,0.00,0.00,VWS V14.01,2013-12-09 09:24:00,
2013-12-09 03:25:00,24.7,21.9,30.16,West,277,0.0,6.0,89,0.00,,CLR,0.00,0.00,VWS V14.01,2013-12-09 09:25:00,
2013-12-09 03:29:00,24.7,21.9,30.16,NNW,327,1.0,2.0,89,0.00,,OVC015,0.00,0.00,VWS V14.01,2013-12-09 09:29:00,
2013-12-09 03:30:00,24.7,21.9,30.15,NNW,327,0.0,2.0,89,0.00,,CLR,0.00,0.00,VWS V14.01,2013-12-09 09:30:00,
2013-12-09 03:34:00,24.7,21.9,30.15,WNW,282,2.0,2.0,89,0.00,,OVC022,0.00,0.00,VWS V14.01,2013-12-09 09:34:00,
2013-12-09 03:35:00,24.7,21.9,30.15,West,259,0.0,4.0,89,0.00,,CLR,0.00,0.00,VWS V14.01,2013-12-09 09:35:00,
2013-12-09 03:39:00,24.6,21.8,30.15,West,267,0.0,4.0,89,0.00,,OVC022,0.00,0.00,VWS V14.01,2013-12-09 09:39:00,
2013-12-09 03:40:00,24.6,21.8,30.15,West,267,0.0,4.0,89,0.00,,CLR,0.00,0.00,VWS V14.01,2013-12-09 09:40:00,
2013-12-09 03:44:00,24.6,21.8,30.15,WNW,292,0.0,1.0,89,0.00,,OVC022,0.00,0.00,VWS V14.01,2013-12-09 09:44:00,
2013-12-09 03:45:00,24.6,21.8,30.15,WNW,302,0.0,3.0,89,0.00,,CLR,0.00,0.00,VWS V14.01,2013-12-09 09:45:00,
2013-12-09 03:49:00,24.6,21.8,30.15,WNW,296,0.0,3.0,89,0.00,,OVC022,0.00,0.00,VWS V14.01,2013-12-09 09:49:00,
2013-12-09 03:50:00,24.5,21.7,30.15,WNW,296,0.0,3.0,89,0.00,,CLR,0.00,0.00,VWS V14.01,2013-12-09 09:50:00,
2013-12-09 03:54:00,24.5,21.7,30.15,WNW,296,0.0,0.0,89,0.00,,OVC022,0.00,0.00,VWS V14.01,2013-12-09 09:54:00,
2013-12-09 03:55:00,24.5,21.7,30.15,West,272,0.0,2.0,89,0.00,,CLR,0.00,0.00,VWS V14.01,2013-12-09 09:55:00,
2013-12-09 03:59:00,24.5,21.7,30.15,WNW,282,0.0,2.0,89,0.00,,OVC022,0.00,0.00,VWS V14.01,2013-12-09 09:59:00,
2013-12-09 04:00:00,24.4,21.6,30.15,WNW,288,1.0,2.0,89,0.00,,CLR,0.00,0.00,VWS V14.01,2013-12-09 10:00:00,
2013-12-09 04:04:00,24.4,21.6,30.15,WNW,283,2.0,2.0,89,0.00,,OVC023,0.00,0.00,VWS V14.01,2013-12-09 10:04:00,
2013-12-09 04:05:00,24.4,21.6,30.15,WNW,283,2.0,2.0,89,0.00,,CLR,0.00,0.00,VWS V14.01,2013-12-09 10:05:00,
2013-12-09 04:09:00,24.3,21.5,30.15,South,178,0.0,3.0,89,0.00,,OVC023,0.00,0.00,VWS V14.01,2013-12-09 10:09:00,
2013-12-09 04:10:00,24.3,21.5,30.15,SW,232,1.0,3.0,89,0.00,,CLR,0.00,0.00,VWS V14.01,2013-12-09 10:10:00,
2013-12-09 04:14:00,24.2,21.4,30.15,WNW,293,0.0,2.0,89,0.00,,OVC023,0.00,0.00,VWS V14.01,2013-12-09 10:14:00,
2013-12-09 04:15:00,24.2,21.4,30.15,WNW,293,0.0,2.0,89,0.00,,CLR,0.00,0.00,VWS V14.01,2013-12-09 10:15:00,
2013-12-09 04:19:00,24.2,21.7,30.15,West,272,2.0,2.0,90,0.00,,OVC023,0.00,0.00,VWS V14.01,2013-12-09 10:19:00,
2013-12-09 04:20:00,24.2,21.7,30.15,West,272,0.0,2.0,90,0.00,,CLR,0.00,0.00,VWS V14.01,2013-12-09 10:20:00,
2013-12-09 04:24:00,24.1,21.6,30.15,West,272,0.0,1.0,90,0.00,,OVC023,0.00,0.00,VWS V14.01,2013-12-09 10:24:00,
2013-12-09 04:25:00,24.1,21.6,30.15,West,272,0.0,1.0,90,0.00,,CLR,0.00,0.00,VWS V14.01,2013-12-09 10:25:00,
2013-12-09 04:30:00,24.0,21.5,30.15,NW,313,0.0,2.0,90,0.00,,OVC023,0.00,0.00,VWS V14.01,2013-12-09 10:30:00,
2013-12-09 04:35:00,24.0,21.5,30.15,WNW,289,0.0,4.0,90,0.00,,OVC023,0.00,0.00,VWS V14.01,2013-12-09 10:35:00,
2013-12-09 04:40:00,23.9,21.4,30.15,West,275,0.0,3.0,90,0.00,,OVC023,0.00,0.00,VWS V14.01,2013-12-09 10:40:00,
2013-12-09 04:45:00,23.9,21.4,30.14,West,275,0.0,0.0,90,0.00,,OVC023,0.00,0.00,VWS V14.01,2013-12-09 10:45:00,
2013-12-09 04:50:00,23.9,21.4,30.14,West,275,0.0,2.0,90,0.00,,OVC020,0.00,0.00,VWS V14.01,2013-12-09 10:50:00,
2013-12-09 04:55:00,23.8,21.3,30.14,West,275,0.0,2.0,90,0.00,,OVC020,0.00,0.00,VWS V14.01,2013-12-09 10:55:00,
2013-12-09 05:00:00,23.8,21.6,30.15,NNW,335,0.0,2.0,91,0.00,,OVC020,0.00,0.00,VWS V14.01,2013-12-09 11:00:00,
2013-12-09 05:05:00,23.8,21.6,30.15,West,279,1.0,2.0,91,0.00,,OVC020,0.00,0.00,VWS V14.01,2013-12-09 11:05:00,
2013-12-09 05:10:00,23.7,21.5,30.15,WNW,289,2.0,2.0,91,0.00,,OVC020,0.00,0.00,VWS V14.01,2013-12-09 11:10:00,
2013-12-09 05:15:00,23.7,21.5,30.17,West,267,2.0,4.0,91,0.00,,OVC020,0.00,0.00,VWS V14.01,2013-12-09 11:15:00,
2013-12-09 05:20:00,23.7,21.5,30.17,West,268,0.0,2.0,91,0.00,,OVC021,0.00,0.00,VWS V14.01,2013-12-09 11:20:00,
2013-12-09 05:25:00,23.7,21.5,30.17,NW,317,0.0,3.0,91,0.00,,OVC021,0.00,0.00,VWS V14.01,2013-12-09 11:25:00,
2013-12-09 05:30:00,23.7,21.5,30.17,WSW,250,1.0,3.0,91,0.00,,OVC021,0.00,0.00,VWS V14.01,2013-12-09 11:30:00,
2013-12-09 05:35:00,23.7,21.5,30.17,WSW,250,0.0,2.0,91,0.00,,OVC021,0.00,0.00,VWS V14.01,2013-12-09 11:35:00,
2013-12-09 05:40:00,23.6,21.4,30.17,WSW,250,0.0,2.0,91,0.00,,OVC021,0.00,0.00,VWS V14.01,2013-12-09 11:40:00,
2013-12-09 05:45:00,23.6,21.6,30.18,West,265,0.0,1.0,92,0.00,,OVC021,0.00,0.00,VWS V14.01,2013-12-09 11:45:00,
2013-12-09 05:50:00,23.6,21.6,30.18,West,265,2.0,3.0,92,0.00,,OVC021,0.00,0.00,VWS V14.01,2013-12-09 11:50:00,
2013-12-09 05:55:00,23.6,21.6,30.18,West,265,0.0,0.0,92,0.00,,OVC021,0.00,0.00,VWS V14.01,2013-12-09 11:55:00,
2013-12-09 06:00:00,23.6,21.6,30.17,WNW,302,0.0,2.0,92,0.00,,OVC018,0.00,0.00,VWS V14.01,2013-12-09 12:00:00,
2013-12-09 06:05:00,23.6,21.6,30.17,West,277,0.0,3.0,92,0.00,,OVC018,0.00,0.00,VWS V14.01,2013-12-09 12:05:00,
2013-12-09 06:10:00,23.6,21.6,30.17,West,274,1.0,3.0,92,0.00,,OVC018,0.00,0.00,VWS V14.01,2013-12-09 12:10:00,
2013-12-09 06:15:00,23.6,21.6,30.18,West,274,1.0,1.0,92,0.00,,CLR,0.00,0.00,VWS V14.01,2013-12-09 12:15:00,
2013-12-09 06:16:00,23.6,21.6,30.18,West,274,1.0,1.0,92,0.00,,OVC018,0.00,0.00,VWS V14.01,2013-12-09 12:16:00,
2013-12-09 06:20:00,23.6,21.6,30.18,WNW,296,0.0,3.0,92,0.00,,CLR,0.00,0.00,VWS V14.01,2013-12-09 12:20:00,
2013-12-09 06:21:00,23.6,21.6,30.18,WNW,296,0.0,3.0,92,0.00,,OVC018,0.00,0.00,VWS V14.01,2013-12-09 12:21:00,
2013-12-09 06:25:00,23.6,21.6,30.18,West,270,3.0,4.0,92,0.00,,CLR,0.00,0.00,VWS V14.01,2013-12-09 12:25:00,
2013-12-09 06:26:00,23.6,21.6,30.18,West,269,2.0,4.0,92,0.00,,OVC018,0.00,0.00,VWS V14.01,2013-12-09 12:26:00,
2013-12-09 06:30:00,23.6,21.6,30.20,WNW,286,0.0,5.0,92,0.00,,CLR,0.00,0.00,VWS V14.01,2013-12-09 12:30:00,
2013-12-09 06:31:00,23.6,21.6,30.20,WNW,286,0.0,5.0,92,0.00,,OVC021,0.00,0.00,VWS V14.01,2013-12-09 12:31:00,
2013-12-09 06:35:00,23.6,21.6,30.20,WNW,297,0.0,1.0,92,0.00,,CLR,0.00,0.00,VWS V14.01,2013-12-09 12:35:00,
2013-12-09 06:36:00,23.6,21.6,30.20,WNW,297,0.0,0.0,92,0.00,,OVC021,0.00,0.00,VWS V14.01,2013-12-09 12:36:00,
2013-12-09 06:40:00,23.6,21.6,30.20,North,360,1.0,3.0,92,0.00,,CLR,0.00,0.00,VWS V14.01,2013-12-09 12:40:00,
2013-12-09 06:41:00,23.6,21.6,30.20,North,360,1.0,1.0,92,0.00,,OVC021,0.00,0.00,VWS V14.01,2013-12-09 12:41:00,
2013-12-09 06:45:00,23.6,21.4,30.19,NW,312,0.0,3.0,91,0.00,,CLR,0.00,0.00,VWS V14.01,2013-12-09 12:45:00,
2013-12-09 06:46:00,23.6,21.4,30.19,NW,312,0.0,0.0,91,0.00,,OVC021,0.00,0.00,VWS V14.01,2013-12-09 12:46:00,
2013-12-09 06:50:00,23.5,21.5,30.19,NW,312,0.0,2.0,92,0.00,,CLR,0.00,0.00,VWS V14.01,2013-12-09 12:50:00,
2013-12-09 06:51:00,23.5,21.5,30.19,NW,312,0.0,0.0,92,0.00,,OVC021,0.00,0.00,VWS V14.01,2013-12-09 12:51:00,
2013-12-09 06:55:00,23.5,21.5,30.19,NW,313,2.0,2.0,92,0.00,,CLR,0.00,0.00,VWS V14.01,2013-12-09 12:55:00,
2013-12-09 06:56:00,23.5,21.5,30.19,NW,312,2.0,2.0,92,0.00,,OVC021,0.00,0.00,VWS V14.01,2013-12-09 12:56:00,
2013-12-09 07:00:00,23.5,21.5,30.20,WNW,282,1.0,3.0,92,0.00,,CLR,0.00,0.00,VWS V14.01,2013-12-09 13:00:00,
2013-12-09 07:01:00,23.5,21.5,30.20,NNE,13,1.0,1.0,92,0.00,,OVC020,0.00,0.00,VWS V14.01,2013-12-09 13:01:00,
2013-12-09 07:05:00,23.4,21.4,30.20,WNW,299,0.0,4.0,92,0.00,,CLR,0.00,0.00,VWS V14.01,2013-12-09 13:05:00,
2013-12-09 07:06:00,23.4,21.4,30.20,WNW,299,1.0,1.0,92,0.00,,OVC020,0.00,0.00,VWS V14.01,2013-12-09 13:06:00,
2013-12-09 07:10:00,23.4,21.4,30.20,WNW,286,0.0,4.0,92,0.00,,CLR,0.00,0.00,VWS V14.01,2013-12-09 13:10:00,
2013-12-09 07:11:00,23.4,21.4,30.20,WNW,286,0.0,0.0,92,0.00,,OVC020,0.00,0.00,VWS V14.01,2013-12-09 13:11:00,
2013-12-09 07:15:00,23.4,21.4,30.21,WNW,301,0.0,4.0,92,0.00,,CLR,0.00,0.00,VWS V14.01,2013-12-09 13:15:00,
2013-12-09 07:16:00,23.4,21.4,30.21,WNW,301,0.0,0.0,92,0.00,,OVC020,0.00,0.00,VWS V14.01,2013-12-09 13:16:00,
2013-12-09 07:20:00,23.3,21.1,30.21,WNW,291,0.0,4.0,91,0.00,,CLR,0.00,0.00,VWS V14.01,2013-12-09 13:20:00,
2013-12-09 07:21:00,23.3,21.1,30.21,WNW,291,0.0,0.0,91,0.00,,OVC020,0.00,0.00,VWS V14.01,2013-12-09 13:21:00,
2013-12-09 07:25:00,23.1,20.6,30.21,WNW,284,0.0,5.0,90,0.00,,CLR,0.00,5.00,VWS V14.01,2013-12-09 13:25:00,
2013-12-09 07:26:00,23.1,20.6,30.21,West,274,1.0,1.0,90,0.00,,OVC020,0.00,5.00,VWS V14.01,2013-12-09 13:26:00,
2013-12-09 07:30:00,22.9,20.1,30.22,WNW,286,0.0,5.0,89,0.00,,CLR,0.00,12.00,VWS V14.01,2013-12-09 13:30:00,
2013-12-09 07:31:00,22.9,20.1,30.22,NNW,330,2.0,2.0,89,0.00,,OVC020,0.00,12.00,VWS V14.01,2013-12-09 13:31:00,
2013-12-09 07:35:00,22.8,20.0,30.22,West,277,2.0,2.0,89,0.00,,CLR,0.00,16.00,VWS V14.01,2013-12-09 13:35:00,
2013-12-09 07:36:00,22.8,20.0,30.22,West,277,0.0,2.0,89,0.00,,OVC020,0.00,16.00,VWS V14.01,2013-12-09 13:36:00,
2013-12-09 07:40:00,22.7,20.0,30.22,NW,310,0.0,3.0,89,0.00,,CLR,0.00,21.00,VWS V14.01,2013-12-09 13:40:00,
2013-12-09 07:41:00,22.7,20.0,30.22,NW,310,0.0,0.0,89,0.00,,OVC020,0.00,21.00,VWS V14.01,2013-12-09 13:41:00,
2013-12-09 07:45:00,22.6,19.6,30.23,West,271,0.0,6.0,88,0.00,,CLR,0.00,32.00,VWS V14.01,2013-12-09 13:45:00,
2013-12-09 07:46:00,22.6,19.6,30.23,West,271,0.0,1.0,88,0.00,,OVC020,0.00,32.00,VWS V14.01,2013-12-09 13:46:00,
2013-12-09 07:50:00,22.6,19.6,30.23,NW,306,1.0,3.0,88,0.00,,CLR,0.00,42.00,VWS V14.01,2013-12-09 13:50:00,
2013-12-09 07:51:00,22.6,19.6,30.23,NW,306,1.0,2.0,88,0.00,,OVC020,0.00,42.00,VWS V14.01,2013-12-09 13:51:00,
2013-12-09 07:55:00,22.6,19.6,30.23,NW,313,1.0,2.0,88,0.00,,CLR,0.00,47.00,VWS V14.01,2013-12-09 13:55:00,
2013-12-09 07:56:00,22.6,19.6,30.23,NW,313,0.0,1.0,88,0.00,,OVC020,0.00,49.00,VWS V14.01,2013-12-09 13:56:00,
2013-12-09 08:00:00,22.7,19.7,30.24,WNW,300,0.0,3.0,88,0.00,,CLR,0.00,46.00,VWS V14.01,2013-12-09 14:00:00,
2013-12-09 08:03:00,22.7,19.7,30.24,WNW,300,0.0,1.0,88,0.00,,BKN020,0.00,46.00,VWS V14.01,2013-12-09 14:03:00,
2013-12-09 08:05:00,22.9,19.9,30.24,WNW,300,0.0,1.0,88,0.00,,CLR,0.00,62.00,VWS V14.01,2013-12-09 14:05:00,
2013-12-09 08:08:00,22.9,19.9,30.24,WNW,300,0.0,0.0,88,0.00,,BKN020,0.00,62.00,VWS V14.01,2013-12-09 14:08:00,
2013-12-09 08:10:00,23.0,20.0,30.24,NW,311,0.0,1.0,88,0.00,,CLR,0.00,62.00,VWS V14.01,2013-12-09 14:10:00,
2013-12-09 08:13:00,23.1,20.1,30.24,West,279,3.0,4.0,88,0.00,,BKN020,0.00,44.00,VWS V14.01,2013-12-09 14:13:00,
2013-12-09 08:15:00,23.1,19.8,30.25,WNW,286,0.0,4.0,87,0.00,,CLR,0.00,46.00,VWS V14.01,2013-12-09 14:15:00,
2013-12-09 08:18:00,23.1,19.8,30.25,WNW,289,1.0,2.0,87,0.00,,SCT020,0.00,46.00,VWS V14.01,2013-12-09 14:18:00,
2013-12-09 08:20:00,23.1,19.8,30.25,WNW,290,3.0,4.0,87,0.00,,CLR,0.00,44.00,VWS V14.01,2013-12-09 14:20:00,
2013-12-09 08:23:00,23.1,19.5,30.25,NNW,344,0.0,3.0,86,0.00,,SCT020,0.00,44.00,VWS V14.01,2013-12-09 14:23:00,
2013-12-09 08:25:00,23.2,19.6,30.25,NNW,344,0.0,3.0,86,0.00,,CLR,0.00,44.00,VWS V14.01,2013-12-09 14:25:00,
2013-12-09 08:28:00,23.1,19.5,30.25,North,360,0.0,3.0,86,0.00,,SCT020,0.00,44.00,VWS V14.01,2013-12-09 14:28:00,
2013-12-09 08:30:00,23.1,19.3,30.25,North,355,0.0,5.0,85,0.00,,CLR,0.00,46.00,VWS V14.01,2013-12-09 14:30:00,
2013-12-09 08:33:00,23.1,19.3,30.25,WSW,244,0.0,5.0,85,0.00,,SCT020,0.00,49.00,VWS V14.01,2013-12-09 14:33:00,
2013-12-09 08:35:00,23.0,18.9,30.25,NW,323,0.0,5.0,84,0.00,,CLR,0.00,53.00,VWS V14.01,2013-12-09 14:35:00,
2013-12-09 08:38:00,23.0,18.9,30.25,SSW,207,0.0,2.0,84,0.00,,SCT020,0.00,58.00,VWS V14.01,2013-12-09 14:38:00,
2013-12-09 08:40:00,22.9,18.8,30.25,North,350,0.0,3.0,84,0.00,,CLR,0.00,63.00,VWS V14.01,2013-12-09 14:40:00,
2013-12-09 08:43:00,22.9,18.8,30.25,WSW,257,3.0,4.0,84,0.00,,SCT020,0.00,63.00,VWS V14.01,2013-12-09 14:43:00,
2013-12-09 08:45:00,22.9,18.8,30.26,North,355,1.0,4.0,84,0.00,,CLR,0.00,63.00,VWS V14.01,2013-12-09 14:45:00,
2013-12-09 08:48:00,22.9,18.8,30.26,NNE,20,3.0,5.0,84,0.00,,BKN022,0.00,74.00,VWS V14.01,2013-12-09 14:48:00,
2013-12-09 08:50:00,22.8,18.7,30.26,NNE,20,0.0,5.0,84,0.00,,CLR,0.00,76.00,VWS V14.01,2013-12-09 14:50:00,
2013-12-09 08:53:00,22.9,19.1,30.26,North,11,0.0,2.0,85,0.00,,BKN022,0.00,77.00,VWS V14.01,2013-12-09 14:53:00,
2013-12-09 08:55:00,22.9,19.1,30.26,North,355,0.0,5.0,85,0.00,,CLR,0.00,81.00,VWS V14.01,2013-12-09 14:55:00,
2013-12-09 08:58:00,22.9,18.8,30.26,NW,324,3.0,3.0,84,0.00,,BKN022,0.00,83.00,VWS V14.01,2013-12-09 14:58:00,
2013-12-09 09:00:00,22.9,19.1,30.27,NW,321,0.0,3.0,85,0.00,,CLR,0.00,84.00,VWS V14.01,2013-12-09 15:00:00,
2013-12-09 09:03:00,22.9,19.1,30.27,NW,321,0.0,2.0,85,0.00,,OVC021,0.00,84.00,VWS V14.01,2013-12-09 15:03:00,
2013-12-09 09:05:00,22.9,19.1,30.27,NNW,347,0.0,2.0,85,0.00,,CLR,0.00,84.00,VWS V14.01,2013-12-09 15:05:00,
2013-12-09 09:08:00,23.0,19.2,30.27,NNW,347,0.0,2.0,85,0.00,,OVC021,0.00,86.00,VWS V14.01,2013-12-09 15:08:00,
2013-12-09 09:10:00,23.1,19.3,30.27,NW,315,1.0,2.0,85,0.00,,CLR,0.00,86.00,VWS V14.01,2013-12-09 15:10:00,
2013-12-09 09:13:00,23.1,19.3,30.27,NNE,15,0.0,2.0,85,0.00,,OVC021,0.00,95.00,VWS V14.01,2013-12-09 15:13:00,
2013-12-09 09:15:00,23.2,19.4,30.28,WNW,299,0.0,2.0,85,0.00,,CLR,0.00,93.00,VWS V14.01,2013-12-09 15:15:00,
2013-12-09 09:18:00,23.3,19.2,30.28,NW,304,0.0,0.0,84,0.00,,OVC021,0.00,93.00,VWS V14.01,2013-12-09 15:18:00,
2013-12-09 09:20:00,23.3,19.5,30.28,NW,304,0.0,0.0,85,0.00,,CLR,0.00,93.00,VWS V14.01,2013-12-09 15:20:00,
2013-12-09 09:23:00,23.4,19.6,30.28,West,279,1.0,3.0,85,0.00,,OVC021,0.00,95.00,VWS V14.01,2013-12-09 15:23:00,
2013-12-09 09:25:00,23.4,19.3,30.28,WNW,285,0.0,3.0,84,0.00,,CLR,0.00,95.00,VWS V14.01,2013-12-09 15:25:00,
2013-12-09 09:28:00,23.6,19.8,30.28,North,355,0.0,2.0,85,0.00,,OVC021,0.00,95.00,VWS V14.01,2013-12-09 15:28:00,
2013-12-09 09:30:00,23.6,19.8,30.29,North,355,0.0,2.0,85,0.00,,CLR,0.00,95.00,VWS V14.01,2013-12-09 15:30:00,
2013-12-09 09:33:00,23.7,19.6,30.29,NW,315,1.0,4.0,84,0.00,,SCT100,0.00,109.00,VWS V14.01,2013-12-09 15:33:00,
2013-12-09 09:35:00,23.7,19.6,30.29,NNE,15,0.0,4.0,84,0.00,,CLR,0.00,111.00,VWS V14.01,2013-12-09 15:35:00,
2013-12-09 09:38:00,23.7,19.6,30.29,North,5,0.0,2.0,84,0.00,,SCT100,0.00,113.00,VWS V14.01,2013-12-09 15:38:00,
2013-12-09 09:40:00,23.8,19.7,30.29,West,263,0.0,3.0,84,0.00,,CLR,0.00,113.00,VWS V14.01,2013-12-09 15:40:00,
2013-12-09 09:43:00,23.8,19.7,30.29,West,263,0.0,1.0,84,0.00,,SCT100,0.00,114.00,VWS V14.01,2013-12-09 15:43:00,
2013-12-09 09:45:00,23.9,19.8,30.30,WNW,286,0.0,1.0,84,0.00,,CLR,0.00,114.00,VWS V14.01,2013-12-09 15:45:00,
2013-12-09 09:48:00,23.9,19.8,30.30,WNW,286,1.0,2.0,84,0.00,,SCT100,0.00,118.00,VWS V14.01,2013-12-09 15:48:00,
2013-12-09 09:50:00,23.8,19.4,30.30,WNW,287,0.0,4.0,83,0.00,,CLR,0.00,118.00,VWS V14.01,2013-12-09 15:50:00,
2013-12-09 09:53:00,23.8,19.7,30.30,WNW,287,0.0,1.0,84,0.00,,SCT100,0.00,118.00,VWS V14.01,2013-12-09 15:53:00,
2013-12-09 09:55:00,24.0,19.9,30.30,North,350,1.0,3.0,84,0.00,,CLR,0.00,120.00,VWS V14.01,2013-12-09 15:55:00,
2013-12-09 09:58:00,23.9,19.8,30.30,NE,40,0.0,4.0,84,0.00,,SCT100,0.00,121.00,VWS V14.01,2013-12-09 15:58:00,
2013-12-09 10:00:00,23.9,19.8,30.29,North,9,3.0,4.0,84,0.00,,CLR,0.00,128.00,VWS V14.01,2013-12-09 16:00:00,
2013-12-09 10:03:00,23.9,19.8,30.29,North,9,0.0,3.0,84,0.00,,CLR,0.00,130.00,VWS V14.01,2013-12-09 16:03:00,
2013-12-09 10:05:00,23.9,19.8,30.29,NNE,14,0.0,3.0,84,0.00,,CLR,0.00,132.00,VWS V14.01,2013-12-09 16:05:00,
2013-12-09 10:08:00,23.9,19.5,30.29,WSW,257,0.0,4.0,83,0.00,,CLR,0.00,132.00,VWS V14.01,2013-12-09 16:08:00,
2013-12-09 10:10:00,24.0,19.6,30.29,WNW,300,0.0,4.0,83,0.00,,CLR,0.00,132.00,VWS V14.01,2013-12-09 16:10:00,
2013-12-09 10:13:00,24.1,19.7,30.29,WNW,300,0.0,2.0,83,0.00,,CLR,0.00,128.00,VWS V14.01,2013-12-09 16:13:00,
2013-12-09 10:15:00,24.1,19.7,30.29,North,355,1.0,3.0,83,0.00,,CLR,0.00,135.00,VWS V14.01,2013-12-09 16:15:00,
2013-12-09 10:18:00,24.1,19.7,30.29,North,355,0.0,2.0,83,0.00,,CLR,0.00,142.00,VWS V14.01,2013-12-09 16:18:00,
2013-12-09 10:20:00,24.1,19.7,30.29,North,349,0.0,2.0,83,0.00,,CLR,0.00,142.00,VWS V14.01,2013-12-09 16:20:00,
2013-12-09 10:23:00,24.1,19.7,30.29,NW,317,0.0,1.0,83,0.00,,CLR,0.00,139.00,VWS V14.01,2013-12-09 16:23:00,
2013-12-09 10:25:00,24.2,19.8,30.29,NNW,331,0.0,2.0,83,0.00,,CLR,0.00,141.00,VWS V14.01,2013-12-09 16:25:00,
2013-12-09 10:28:00,24.3,19.9,30.29,NNW,331,0.0,0.0,83,0.00,,CLR,0.00,139.00,VWS V14.01,2013-12-09 16:28:00,
2013-12-09 10:30:00,24.4,20.0,30.30,NNE,22,1.0,1.0,83,0.00,,CLR,0.00,142.00,VWS V14.01,2013-12-09 16:30:00,
2013-12-09 10:33:00,24.5,20.1,30.30,NNE,22,1.0,1.0,83,0.00,,CLR,0.00,141.00,VWS V14.01,2013-12-09 16:33:00,
2013-12-09 10:35:00,24.6,19.9,30.30,NNE,22,0.0,2.0,82,0.00,,CLR,0.00,141.00,VWS V14.01,2013-12-09 16:35:00,
2013-12-09 10:38:00,24.6,19.9,30.30,NNE,22,0.0,1.0,82,0.00,,CLR,0.00,137.00,VWS V14.01,2013-12-09 16:38:00,
2013-12-09 10:40:00,24.7,20.0,30.30,NNE,13,0.0,1.0,82,0.00,,CLR,0.00,137.00,VWS V14.01,2013-12-09 16:40:00,
2013-12-09 10:44:00,24.7,20.0,30.30,NNE,14,0.0,2.0,82,0.00,,CLR,0.00,148.00,VWS V14.01,2013-12-09 16:44:00,
2013-12-09 10:45:00,24.7,19.7,30.29,NNE,25,0.0,2.0,81,0.00,,CLR,0.00,151.00,VWS V14.01,2013-12-09 16:45:00,
2013-12-09 10:49:00,24.8,19.8,30.29,NNE,25,0.0,0.0,81,0.00,,CLR,0.00,169.00,VWS V14.01,2013-12-09 16:49:00,
2013-12-09 10:50:00,24.9,19.9,30.29,NNE,15,0.0,2.0,81,0.00,,CLR,0.00,178.00,VWS V14.01,2013-12-09 16:50:00,
2013-12-09 10:54:00,24.8,19.5,30.29,WNW,294,1.0,3.0,80,0.00,,CLR,0.00,181.00,VWS V14.01,2013-12-09 16:54:00,
2013-12-09 10:55:00,24.7,19.1,30.29,North,360,0.0,3.0,79,0.00,,CLR,0.00,190.00,VWS V14.01,2013-12-09 16:55:00,
2013-12-09 10:59:00,24.5,18.9,30.29,NNW,335,1.0,3.0,79,0.00,,CLR,0.00,200.00,VWS V14.01,2013-12-09 16:59:00,
2013-12-09 11:00:00,24.3,18.7,30.29,North,9,0.0,4.0,79,0.00,,CLR,0.00,206.00,VWS V14.01,2013-12-09 17:00:00,
2013-12-09 11:04:00,24.3,18.7,30.29,North,355,0.0,2.0,79,0.00,,FEW014,0.00,204.00,VWS V14.01,2013-12-09 17:04:00,
2013-12-09 11:05:00,24.5,18.9,30.29,North,5,1.0,3.0,79,0.00,,CLR,0.00,204.00,VWS V14.01,2013-12-09 17:05:00,
2013-12-09 11:09:00,24.6,19.0,30.29,WNW,298,0.0,2.0,79,0.00,,FEW014,0.00,200.00,VWS V14.01,2013-12-09 17:09:00,
2013-12-09 11:10:00,24.6,19.0,30.29,WNW,302,0.0,2.0,79,0.00,,CLR,0.00,202.00,VWS V14.01,2013-12-09 17:10:00,
2013-12-09 11:14:00,24.6,19.0,30.29,North,11,0.0,2.0,79,0.00,,FEW014,0.00,202.00,VWS V14.01,2013-12-09 17:14:00,
2013-12-09 11:15:00,24.5,18.6,30.29,NNE,24,1.0,2.0,78,0.00,,CLR,0.00,197.00,VWS V14.01,2013-12-09 17:15:00,
2013-12-09 11:19:00,24.3,18.1,30.29,NNE,13,0.0,3.0,77,0.00,,FEW014,0.00,200.00,VWS V14.01,2013-12-09 17:19:00,
2013-12-09 11:20:00,24.3,18.1,30.29,NNE,13,0.0,3.0,77,0.00,,CLR,0.00,202.00,VWS V14.01,2013-12-09 17:20:00,
2013-12-09 11:24:00,24.3,18.1,30.29,NW,317,0.0,2.0,77,0.00,,FEW014,0.00,206.00,VWS V14.01,2013-12-09 17:24:00,
2013-12-09 11:25:00,24.4,18.2,30.29,NW,324,0.0,2.0,77,0.00,,CLR,0.00,207.00,VWS V14.01,2013-12-09 17:25:00,
2013-12-09 11:29:00,24.5,18.6,30.29,North,355,3.0,3.0,78,0.00,,FEW014,0.00,204.00,VWS V14.01,2013-12-09 17:29:00,
2013-12-09 11:30:00,24.5,18.3,30.29,NNE,29,1.0,3.0,77,0.00,,CLR,0.00,204.00,VWS V14.01,2013-12-09 17:30:00,
2013-12-09 11:34:00,24.5,18.3,30.29,NNW,348,1.0,2.0,77,0.00,,FEW014,0.00,230.00,VWS V14.01,2013-12-09 17:34:00,
2013-12-09 11:35:00,24.5,18.6,30.29,NNW,348,0.0,2.0,78,0.00,,CLR,0.00,230.00,VWS V14.01,2013-12-09 17:35:00,
2013-12-09 11:39:00,24.7,18.5,30.29,NNW,348,0.0,1.0,77,0.00,,FEW014,0.00,271.00,VWS V14.01,2013-12-09 17:39:00,
2013-12-09 11:40:00,24.7,18.5,30.29,West,269,2.0,2.0,77,0.00,,CLR,0.00,271.00,VWS V14.01,2013-12-09 17:40:00,
2013-12-09 11:44:00,24.8,18.9,30.29,North,355,0.0,4.0,78,0.00,,FEW014,0.00,237.00,VWS V14.01,2013-12-09 17:44:00,
2013-12-09 11:45:00,24.8,18.9,30.29,North,5,0.0,4.0,78,0.00,,CLR,0.00,255.00,VWS V14.01,2013-12-09 17:45:00,
2013-12-09 11:49:00,24.7,18.8,30.29,NW,309,1.0,7.0,78,0.00,,FEW014,0.00,250.00,VWS V14.01,2013-12-09 17:49:00,
2013-12-09 11:50:00,24.6,18.7,30.29,WNW,294,1.0,7.0,78,0.00,,CLR,0.00,250.00,VWS V14.01,2013-12-09 17:50:00,
2013-12-09 11:54:00,24.6,18.4,30.29,West,267,3.0,4.0,77,0.00,,FEW014,0.00,281.00,VWS V14.01,2013-12-09 17:54:00,
2013-12-09 11:55:00,24.5,18.3,30.29,NW,314,1.0,7.0,77,0.00,,CLR,0.00,281.00,VWS V14.01,2013-12-09 17:55:00,
2013-12-09 11:59:00,24.9,19.0,30.29,NW,319,0.0,2.0,78,0.00,,FEW014,0.00,406.00,VWS V14.01,2013-12-09 17:59:00,
2013-12-09 12:00:00,24.9,18.7,30.28,NNE,13,0.0,3.0,77,0.00,,CLR,0.00,387.00,VWS V14.01,2013-12-09 18:00:00,
2013-12-09 12:04:00,25.0,18.5,30.28,West,281,0.0,4.0,76,0.00,,SCT100,0.00,387.00,VWS V14.01,2013-12-09 18:04:00,
2013-12-09 12:05:00,25.1,18.9,30.28,NW,310,2.0,5.0,77,0.00,,CLR,0.00,461.00,VWS V14.01,2013-12-09 18:05:00,
2013-12-09 12:09:00,25.2,18.1,30.28,NNW,342,1.0,4.0,74,0.00,,SCT100,0.00,410.00,VWS V14.01,2013-12-09 18:09:00,
2013-12-09 12:10:00,25.1,18.0,30.28,WNW,286,2.0,4.0,74,0.00,,CLR,0.00,322.00,VWS V14.01,2013-12-09 18:10:00,
2013-12-09 12:14:00,24.9,17.8,30.28,NE,53,0.0,2.0,74,0.00,,SCT100,0.00,325.00,VWS V14.01,2013-12-09 18:14:00,
2013-12-09 12:15:00,24.7,17.6,30.27,NNE,22,0.0,2.0,74,0.00,,CLR,0.00,325.00,VWS V14.01,2013-12-09 18:15:00,
2013-12-09 12:19:00,24.7,17.6,30.27,NNW,348,0.0,4.0,74,0.00,,SCT100,0.00,278.00,VWS V14.01,2013-12-09 18:19:00,
2013-12-09 12:20:00,24.7,17.6,30.27,NNW,348,0.0,4.0,74,0.00,,CLR,0.00,278.00,VWS V14.01,2013-12-09 18:20:00,
2013-12-09 12:24:00,24.8,17.7,30.27,NNW,344,0.0,2.0,74,0.00,,SCT100,0.00,241.00,VWS V14.01,2013-12-09 18:24:00,
2013-12-09 12:25:00,24.9,17.8,30.27,NNW,344,0.0,2.0,74,0.00,,CLR,0.00,234.00,VWS V14.01,2013-12-09 18:25:00,
2013-12-09 12:29:00,24.9,17.2,30.27,NNW,342,1.0,3.0,72,0.00,,SCT100,0.00,232.00,VWS V14.01,2013-12-09 18:29:00,
2013-12-09 12:30:00,24.8,17.1,30.26,NNW,342,0.0,3.0,72,0.00,,CLR,0.00,232.00,VWS V14.01,2013-12-09 18:30:00,
2013-12-09 12:34:00,24.8,17.7,30.26,NNW,342,0.0,1.0,74,0.00,,SCT100,0.00,237.00,VWS V14.01,2013-12-09 18:34:00,
2013-12-09 12:35:00,24.8,17.4,30.26,NW,304,3.0,3.0,73,0.00,,CLR,0.00,250.00,VWS V14.01,2013-12-09 18:35:00,
2013-12-09 12:39:00,24.8,17.1,30.26,North,360,0.0,3.0,72,0.00,,SCT100,0.00,251.00,VWS V14.01,2013-12-09 18:39:00,
2013-12-09 12:40:00,24.8,17.1,30.26,North,360,0.0,3.0,72,0.00,,CLR,0.00,251.00,VWS V14.01,2013-12-09 18:40:00,
2013-12-09 12:44:00,24.8,17.1,30.26,North,360,0.0,1.0,72,0.00,,SCT100,0.00,246.00,VWS V14.01,2013-12-09 18:44:00,
2013-12-09 12:45:00,24.9,17.2,30.25,North,360,0.0,1.0,72,0.00,,CLR,0.00,246.00,VWS V14.01,2013-12-09 18:45:00,
2013-12-09 12:49:00,25.0,16.9,30.25,WNW,295,0.0,2.0,71,0.00,,SCT100,0.00,253.00,VWS V14.01,2013-12-09 18:49:00,
2013-12-09 12:50:00,25.0,17.3,30.25,WNW,295,1.0,2.0,72,0.00,,CLR,0.00,253.00,VWS V14.01,2013-12-09 18:50:00,
2013-12-09 12:54:00,25.1,17.0,30.25,WNW,295,0.0,1.0,71,0.00,,SCT100,0.00,239.00,VWS V14.01,2013-12-09 18:54:00,
2013-12-09 12:55:00,25.1,17.0,30.25,WNW,296,0.0,1.0,71,0.00,,CLR,0.00,243.00,VWS V14.01,2013-12-09 18:55:00,
2013-12-09 12:59:00,25.1,17.0,30.25,West,274,2.0,6.0,71,0.00,,SCT100,0.00,229.00,VWS V14.01,2013-12-09 18:59:00,
2013-12-09 13:00:00,25.1,17.0,30.25,West,275,0.0,6.0,71,0.00,,CLR,0.00,227.00,VWS V14.01,2013-12-09 19:00:00,
2013-12-09 13:05:00,25.0,16.9,30.25,North,355,0.0,3.0,71,0.00,,OVC090,0.00,223.00,VWS V14.01,2013-12-09 19:05:00,
2013-12-09 13:10:00,24.8,16.4,30.25,North,350,1.0,3.0,70,0.00,,OVC090,0.00,216.00,VWS V14.01,2013-12-09 19:10:00,
2013-12-09 13:15:00,24.9,16.5,30.24,NW,308,0.0,4.0,70,0.00,,OVC090,0.00,193.00,VWS V14.01,2013-12-09 19:15:00,
2013-12-09 13:20:00,25.0,16.9,30.24,NNW,333,0.0,2.0,71,0.00,,OVC090,0.00,186.00,VWS V14.01,2013-12-09 19:20:00,
2013-12-09 13:25:00,24.9,16.8,30.24,NW,310,1.0,1.0,71,0.00,,OVC090,0.00,165.00,VWS V14.01,2013-12-09 19:25:00,
2013-12-09 13:30:00,25.0,16.9,30.24,NW,315,0.0,3.0,71,0.00,,OVC090,0.00,163.00,VWS V14.01,2013-12-09 19:30:00,
2013-12-09 13:35:00,25.1,16.7,30.24,North,360,3.0,3.0,70,0.00,,OVC090,0.00,155.00,VWS V14.01,2013-12-09 19:35:00,
2013-12-09 13:40:00,25.2,16.8,30.24,North,360,0.0,0.0,70,0.00,,OVC090,0.00,149.00,VWS V14.01,2013-12-09 19:40:00,
2013-12-09 13:45:00,25.3,16.9,30.23,NNE,13,1.0,3.0,70,0.00,,OVC090,0.00,160.00,VWS V14.01,2013-12-09 19:45:00,
2013-12-09 13:50:00,25.3,17.2,30.23,North,10,1.0,2.0,71,0.00,,OVC090,0.00,158.00,VWS V14.01,2013-12-09 19:50:00,
2013-12-09 13:55:00,25.3,16.9,30.23,NNE,31,0.0,2.0,70,0.00,,OVC090,0.00,151.00,VWS V14.01,2013-12-09 19:55:00,
2013-12-09 14:00:00,25.3,17.2,30.22,NNE,22,0.0,3.0,71,0.00,,OVC090,0.00,160.00,VWS V14.01,2013-12-09 20:00:00,
2013-12-09 14:05:00,25.2,16.8,30.22,NNE,31,0.0,2.0,70,0.00,,OVC060,0.00,141.00,VWS V14.01,2013-12-09 20:05:00,
2013-12-09 14:10:00,25.2,17.5,30.22,NNE,31,0.0,1.0,72,0.00,,OVC060,0.00,125.00,VWS V14.01,2013-12-09 20:10:00,
2013-12-09 14:15:00,25.3,17.5,30.22,North,355,0.0,2.0,72,0.00,,OVC060,0.00,121.00,VWS V14.01,2013-12-09 20:15:00,
2013-12-09 14:20:00,25.2,17.5,30.22,NNE,24,0.0,3.0,72,0.00,,OVC060,0.00,102.00,VWS V14.01,2013-12-09 20:20:00,
2013-12-09 14:25:00,25.0,17.3,30.22,NE,38,0.0,3.0,72,0.00,,OVC060,0.00,98.00,VWS V14.01,2013-12-09 20:25:00,
2013-12-09 14:30:00,24.9,17.2,30.22,NNE,30,0.0,3.0,72,0.00,,OVC060,0.00,88.00,VWS V14.01,2013-12-09 20:30:00,
2013-12-09 14:35:00,24.8,17.1,30.22,NNE,30,0.0,3.0,72,0.00,,OVC060,0.00,77.00,VWS V14.01,2013-12-09 20:35:00,
2013-12-09 14:40:00,24.7,17.3,30.22,NNE,30,1.0,2.0,73,0.00,,OVC060,0.00,79.00,VWS V14.01,2013-12-09 20:40:00,
2013-12-09 14:45:00,24.6,17.2,30.22,NNE,24,0.0,2.0,73,0.00,,OVC060,0.00,65.00,VWS V14.01,2013-12-09 20:45:00,
2013-12-09 14:50:00,24.4,17.3,30.22,NNE,24,0.0,2.0,74,0.00,,OVC060,0.00,70.00,VWS V14.01,2013-12-09 20:50:00,
2013-12-09 14:55:00,24.3,17.2,30.22,NNE,24,0.0,2.0,74,0.00,,OVC060,0.00,76.00,VWS V14.01,2013-12-09 20:55:00,
2013-12-09 15:00:00,24.3,17.5,30.22,NNE,24,2.0,2.0,75,0.00,,OVC060,0.00,67.00,VWS V14.01,2013-12-09 21:00:00,
2013-12-09 15:05:00,24.2,17.4,30.22,NNE,24,0.0,2.0,75,0.00,,OVC060,0.00,63.00,VWS V14.01,2013-12-09 21:05:00,
2013-12-09 15:10:00,24.2,17.1,30.22,NNE,24,0.0,2.0,74,0.00,,CLR,0.00,58.00,VWS V14.01,2013-12-09 21:10:00,
2013-12-09 15:11:00,24.2,17.1,30.22,NNE,24,0.0,2.0,74,0.00,,OVC060,0.00,58.00,VWS V14.01,2013-12-09 21:11:00,
2013-12-09 15:15:00,24.2,17.4,30.22,NNE,24,0.0,2.0,75,0.00,,CLR,0.00,62.00,VWS V14.01,2013-12-09 21:15:00,
2013-12-09 15:16:00,24.2,17.4,30.22,NNE,24,0.0,2.0,75,0.00,,OVC060,0.00,62.00,VWS V14.01,2013-12-09 21:16:00,
2013-12-09 15:20:00,24.2,17.4,30.22,NNE,24,0.0,2.0,75,0.00,,CLR,0.00,72.00,VWS V14.01,2013-12-09 21:20:00,
2013-12-09 15:21:00,24.2,17.4,30.22,NNE,24,0.0,2.0,75,0.00,,OVC060,0.00,72.00,VWS V14.01,2013-12-09 21:21:00,
2013-12-09 15:25:00,24.1,17.3,30.22,NNE,24,1.0,1.0,75,0.00,,CLR,0.00,60.00,VWS V14.01,2013-12-09 21:25:00,
2013-12-09 15:26:00,24.1,17.3,30.22,NNE,24,1.0,1.0,75,0.00,,OVC060,0.00,60.00,VWS V14.01,2013-12-09 21:26:00,
2013-12-09 15:30:00,24.0,17.2,30.21,NNE,24,0.0,2.0,75,0.00,,CLR,0.00,62.00,VWS V14.01,2013-12-09 21:30:00,
2013-12-09 15:31:00,24.0,17.2,30.21,NNE,24,0.0,0.0,75,0.00,,OVC060,0.00,62.00,VWS V14.01,2013-12-09 21:31:00,
2013-12-09 15:35:00,24.0,17.2,30.21,NNE,24,0.0,2.0,75,0.00,,CLR,0.00,56.00,VWS V14.01,2013-12-09 21:35:00,
2013-12-09 15:36:00,24.0,17.2,30.21,NNE,24,1.0,1.0,75,0.00,,OVC060,0.00,56.00,VWS V14.01,2013-12-09 21:36:00,
2013-12-09 15:40:00,23.9,17.1,30.21,NNE,24,0.0,1.0,75,0.00,,CLR,0.00,54.00,VWS V14.01,2013-12-09 21:40:00,
2013-12-09 15:41:00,23.9,17.1,30.21,NNE,24,0.0,0.0,75,0.00,,OVC060,0.00,54.00,VWS V14.01,2013-12-09 21:41:00,
2013-12-09 15:45:00,23.9,17.1,30.20,NNE,24,0.0,2.0,75,0.00,,CLR,0.00,51.00,VWS V14.01,2013-12-09 21:45:00,
2013-12-09 15:46:00,23.8,17.0,30.20,NNE,24,1.0,1.0,75,0.00,,,0.00,51.00,VWS V14.01,2013-12-09 21:46:00,
2013-12-09 15:50:00,23.7,17.3,30.20,NNE,24,0.0,2.0,76,0.00,,CLR,0.00,44.00,VWS V14.01,2013-12-09 21:50:00,
2013-12-09 15:51:00,23.7,17.3,30.20,NNE,24,0.0,0.0,76,0.00,,,0.00,44.00,VWS V14.01,2013-12-09 21:51:00,
2013-12-09 15:55:00,23.7,17.3,30.20,NNE,24,1.0,2.0,76,0.00,,CLR,0.00,44.00,VWS V14.01,2013-12-09 21:55:00,
2013-12-09 15:56:00,23.7,17.3,30.20,NNE,24,0.0,1.0,76,0.00,,,0.00,44.00,VWS V14.01,2013-12-09 21:56:00,
2013-12-09 16:00:00,23.6,17.5,30.21,NNE,24,0.0,3.0,77,0.00,,CLR,0.00,39.00,VWS V14.01,2013-12-09 22:00:00,
2013-12-09 16:01:00,23.6,17.5,30.21,NNE,24,0.0,0.0,77,0.00,,,0.00,39.00,VWS V14.01,2013-12-09 22:01:00,
2013-12-09 16:05:00,23.5,17.7,30.21,NNE,24,1.0,3.0,78,0.00,,CLR,0.00,32.00,VWS V14.01,2013-12-09 22:05:00,
2013-12-09 16:06:00,23.5,17.7,30.21,NNE,24,2.0,2.0,78,0.00,,,0.00,32.00,VWS V14.01,2013-12-09 22:06:00,
2013-12-09 16:10:00,23.4,17.9,30.21,NNE,24,0.0,2.0,79,0.00,,CLR,0.00,30.00,VWS V14.01,2013-12-09 22:10:00,
2013-12-09 16:11:00,23.4,17.9,30.21,NNE,24,0.0,0.0,79,0.00,,,0.00,30.00,VWS V14.01,2013-12-09 22:11:00,
2013-12-09 16:15:00,23.2,17.7,30.21,NNE,27,0.0,2.0,79,0.00,,CLR,0.00,25.00,VWS V14.01,2013-12-09 22:15:00,
2013-12-09 16:16:00,23.2,17.7,30.21,NNE,27,0.0,0.0,79,0.00,,,0.00,25.00,VWS V14.01,2013-12-09 22:16:00,
2013-12-09 16:20:00,23.1,17.9,30.21,NNE,27,0.0,0.0,80,0.00,,CLR,0.00,23.00,VWS V14.01,2013-12-09 22:20:00,
2013-12-09 16:21:00,23.1,17.9,30.21,NNE,27,0.0,0.0,80,0.00,,,0.00,21.00,VWS V14.01,2013-12-09 22:21:00,
2013-12-09 16:25:00,23.0,18.0,30.21,NNE,27,0.0,2.0,81,0.00,,CLR,0.00,19.00,VWS V14.01,2013-12-09 22:25:00,
2013-12-09 16:26:00,23.0,18.0,30.21,NNE,27,0.0,0.0,81,0.00,,,0.00,14.00,VWS V14.01,2013-12-09 22:26:00,
2013-12-09 16:30:00,22.9,18.0,30.20,NNE,28,0.0,1.0,81,0.00,,CLR,0.00,12.00,VWS V14.01,2013-12-09 22:30:00,
2013-12-09 16:31:00,22.8,18.1,30.20,NNE,28,0.0,0.0,82,0.00,,,0.00,12.00,VWS V14.01,2013-12-09 22:31:00,
2013-12-09 16:35:00,22.6,17.9,30.20,NNE,28,0.0,2.0,82,0.00,,CLR,0.00,7.00,VWS V14.01,2013-12-09 22:35:00,
2013-12-09 16:36:00,22.6,17.9,30.20,NNE,28,0.0,0.0,82,0.00,,,0.00,7.00,VWS V14.01,2013-12-09 22:36:00,
2013-12-09 16:40:00,22.5,17.9,30.20,NNE,28,0.0,2.0,82,0.00,,CLR,0.00,5.00,VWS V14.01,2013-12-09 22:40:00,
2013-12-09 16:41:00,22.5,17.9,30.20,NNE,28,0.0,0.0,82,0.00,,,0.00,5.00,VWS V14.01,2013-12-09 22:41:00,
2013-12-09 16:45:00,22.3,17.9,30.21,NNE,28,0.0,1.0,83,0.00,,CLR,0.00,0.00,VWS V14.01,2013-12-09 22:45:00,
2013-12-09 16:46:00,22.3,17.9,30.21,NNE,28,0.0,0.0,83,0.00,,,0.00,0.00,VWS V14.01,2013-12-09 22:46:00,
2013-12-09 16:50:00,22.2,18.1,30.21,NNE,28,0.0,0.0,84,0.00,,CLR,0.00,0.00,VWS V14.01,2013-12-09 22:50:00,
2013-12-09 16:51:00,22.2,17.8,30.21,NNE,28,0.0,0.0,83,0.00,,,0.00,0.00,VWS V14.01,2013-12-09 22:51:00,
2013-12-09 16:55:00,22.1,18.0,30.21,NNE,28,0.0,2.0,84,0.00,,CLR,0.00,0.00,VWS V14.01,2013-12-09 22:55:00,
2013-12-09 16:56:00,22.0,17.9,30.21,NNE,28,0.0,0.0,84,0.00,,,0.00,0.00,VWS V14.01,2013-12-09 22:56:00,
2013-12-09 17:00:00,22.0,17.9,30.23,NNE,28,0.0,0.0,84,0.00,,CLR,0.00,0.00,VWS V14.01,2013-12-09 23:00:00,
2013-12-09 17:01:00,22.0,17.9,30.23,NNE,28,0.0,0.0,84,0.00,,,0.00,0.00,VWS V14.01,2013-12-09 23:01:00,
2013-12-09 17:05:00,21.9,17.8,30.23,NNE,28,0.0,0.0,84,0.00,,CLR,0.00,0.00,VWS V14.01,2013-12-09 23:05:00,
2013-12-09 17:06:00,21.9,17.8,30.23,NNE,28,0.0,0.0,84,0.00,,,0.00,0.00,VWS V14.01,2013-12-09 23:06:00,
2013-12-09 17:10:00,21.8,18.0,30.23,NNE,28,0.0,0.0,85,0.00,,CLR,0.00,0.00,VWS V14.01,2013-12-09 23:10:00,
2013-12-09 17:11:00,21.8,18.0,30.23,NNE,28,0.0,0.0,85,0.00,,,0.00,0.00,VWS V14.01,2013-12-09 23:11:00,
2013-12-09 17:15:00,21.8,18.0,30.23,NNE,28,0.0,0.0,85,0.00,,CLR,0.00,0.00,VWS V14.01,2013-12-09 23:15:00,
2013-12-09 17:16:00,21.8,18.0,30.23,NNE,28,0.0,0.0,85,0.00,,,0.00,0.00,VWS V14.01,2013-12-09 23:16:00,
2013-12-09 17:20:00,21.7,17.9,30.23,NNE,28,0.0,0.0,85,0.00,,CLR,0.00,0.00,VWS V14.01,2013-12-09 23:20:00,
2013-12-09 17:21:00,21.7,18.2,30.23,NNE,28,0.0,0.0,86,0.00,,,0.00,0.00,VWS V14.01,2013-12-09 23:21:00,
2013-12-09 17:25:00,21.6,17.8,30.23,NNE,28,0.0,0.0,85,0.00,,CLR,0.00,0.00,VWS V14.01,2013-12-09 23:25:00,
2013-12-09 17:26:00,21.6,17.8,30.23,NNE,28,0.0,0.0,85,0.00,,,0.00,0.00,VWS V14.01,2013-12-09 23:26:00,
2013-12-09 17:30:00,21.6,18.1,30.23,NNE,28,0.0,0.0,86,0.00,,CLR,0.00,0.00,VWS V14.01,2013-12-09 23:30:00,
2013-12-09 17:31:00,21.5,18.0,30.23,NNE,28,0.0,0.0,86,0.00,,,0.00,0.00,VWS V14.01,2013-12-09 23:31:00,
2013-12-09 17:35:00,21.5,18.0,30.23,NNE,28,0.0,0.0,86,0.00,,CLR,0.00,0.00,VWS V14.01,2013-12-09 23:35:00,
2013-12-09 17:36:00,21.5,18.0,30.23,NNE,28,0.0,0.0,86,0.00,,,0.00,0.00,VWS V14.01,2013-12-09 23:36:00,
2013-12-09 17:40:00,21.5,18.0,30.23,NNE,28,0.0,0.0,86,0.00,,CLR,0.00,0.00,VWS V14.01,2013-12-09 23:40:00,
2013-12-09 17:41:00,21.4,18.1,30.23,NNE,28,0.0,0.0,87,0.00,,,0.00,0.00,VWS V14.01,2013-12-09 23:41:00,
2013-12-09 17:45:00,21.5,18.2,30.23,NNE,28,0.0,0.0,87,0.00,,CLR,0.00,0.00,VWS V14.01,2013-12-09 23:45:00,
2013-12-09 17:46:00,21.4,18.1,30.23,NNE,28,0.0,0.0,87,0.00,,,0.00,0.00,VWS V14.01,2013-12-09 23:46:00,
2013-12-09 17:50:00,21.4,18.1,30.23,NNE,28,0.0,0.0,87,0.00,,CLR,0.00,0.00,VWS V14.01,2013-12-09 23:50:00,
2013-12-09 17:51:00,21.4,18.1,30.23,NNE,28,0.0,0.0,87,0.00,,,0.00,0.00,VWS V14.01,2013-12-09 23:51:00,
2013-12-09 17:55:00,21.4,18.1,30.23,NNE,28,0.0,0.0,87,0.00,,CLR,0.00,0.00,VWS V14.01,2013-12-09 23:55:00,
2013-12-09 17:56:00,21.4,18.1,30.23,NNE,28,0.0,1.0,87,0.00,,,0.00,0.00,VWS V14.01,2013-12-09 23:56:00,
2013-12-09 18:00:00,21.3,18.0,30.24,NNE,28,0.0,1.0,87,0.00,,CLR,0.00,0.00,VWS V14.01,2013-12-10 00:00:00,
2013-12-09 18:01:00,21.3,18.0,30.24,NNE,28,0.0,0.0,87,0.00,,,0.00,0.00,VWS V14.01,2013-12-10 00:01:00,
2013-12-09 18:05:00,21.3,18.3,30.24,NNE,28,0.0,0.0,88,0.00,,CLR,0.00,0.00,VWS V14.01,2013-12-10 00:05:00,
2013-12-09 18:07:00,21.3,18.3,30.24,NNE,28,0.0,0.0,88,0.00,,,0.00,0.00,VWS V14.01,2013-12-10 00:07:00,
2013-12-09 18:10:00,21.3,18.3,30.24,NNE,16,0.0,2.0,88,0.00,,CLR,0.00,0.00,VWS V14.01,2013-12-10 00:10:00,
2013-12-09 18:12:00,21.3,18.3,30.24,NNE,16,0.0,1.0,88,0.00,,,0.00,0.00,VWS V14.01,2013-12-10 00:12:00,
2013-12-09 18:15:00,21.3,18.3,30.23,NNE,16,0.0,1.0,88,0.00,,CLR,0.00,0.00,VWS V14.01,2013-12-10 00:15:00,
2013-12-09 18:17:00,21.3,18.3,30.23,NNE,16,0.0,0.0,88,0.00,,,0.00,0.00,VWS V14.01,2013-12-10 00:17:00,
2013-12-09 18:20:00,21.2,18.2,30.23,NNE,16,0.0,0.0,88,0.00,,CLR,0.00,0.00,VWS V14.01,2013-12-10 00:20:00,
2013-12-09 18:22:00,21.2,18.2,30.23,NNE,16,1.0,1.0,88,0.00,,,0.00,0.00,VWS V14.01,2013-12-10 00:22:00,
2013-12-09 18:25:00,21.2,18.2,30.23,NNE,16,0.0,1.0,88,0.00,,CLR,0.00,0.00,VWS V14.01,2013-12-10 00:25:00,
2013-12-09 18:27:00,21.2,18.2,30.23,NNE,16,0.0,0.0,88,0.00,,,0.00,0.00,VWS V14.01,2013-12-10 00:27:00,
2013-12-09 18:30:00,21.2,18.2,30.23,NNE,16,0.0,0.0,88,0.00,,CLR,0.00,0.00,VWS V14.01,2013-12-10 00:30:00,
2013-12-09 18:32:00,21.2,18.2,30.23,NNE,16,0.0,0.0,88,0.00,,,0.00,0.00,VWS V14.01,2013-12-10 00:32:00,
2013-12-09 18:35:00,21.1,18.1,30.23,NNE,16,0.0,0.0,88,0.00,,CLR,0.00,0.00,VWS V14.01,2013-12-10 00:35:00,
2013-12-09 18:37:00,21.1,18.1,30.23,NNE,16,0.0,0.0,88,0.00,,,0.00,0.00,VWS V14.01,2013-12-10 00:37:00,
2013-12-09 18:40:00,21.1,18.1,30.23,NNE,16,0.0,0.0,88,0.00,,CLR,0.00,0.00,VWS V14.01,2013-12-10 00:40:00,
2013-12-09 18:42:00,21.1,18.1,30.23,NNE,16,0.0,0.0,88,0.00,,,0.00,0.00,VWS V14.01,2013-12-10 00:42:00,
2013-12-09 18:45:00,21.1,18.1,30.24,NNE,16,0.0,0.0,88,0.00,,CLR,0.00,0.00,VWS V14.01,2013-12-10 00:45:00,
2013-12-09 18:47:00,21.1,18.1,30.24,NNE,16,0.0,0.0,88,0.00,,,0.00,0.00,VWS V14.01,2013-12-10 00:47:00,
2013-12-09 18:50:00,21.1,18.4,30.24,NNE,16,0.0,1.0,89,0.00,,CLR,0.00,0.00,VWS V14.01,2013-12-10 00:50:00,
2013-12-09 18:52:00,21.1,18.4,30.24,NNE,16,0.0,0.0,89,0.00,,,0.00,0.00,VWS V14.01,2013-12-10 00:52:00,
2013-12-09 18:55:00,21.0,18.3,30.24,NNE,16,0.0,0.0,89,0.00,,CLR,0.00,0.00,VWS V14.01,2013-12-10 00:55:00,
2013-12-09 18:57:00,21.0,18.3,30.24,NNE,16,0.0,0.0,89,0.00,,,0.00,0.00,VWS V14.01,2013-12-10 00:57:00,
2013-12-09 19:00:00,21.0,18.3,30.24,NNE,17,0.0,0.0,89,0.00,,CLR,0.00,0.00,VWS V14.01,2013-12-10 01:00:00,
2013-12-09 19:02:00,21.0,18.3,30.24,NNE,17,0.0,1.0,89,0.00,,,0.00,0.00,VWS V14.01,2013-12-10 01:02:00,
2013-12-09 19:05:00,21.0,18.3,30.24,NNE,17,0.0,1.0,89,0.00,,CLR,0.00,0.00,VWS V14.01,2013-12-10 01:05:00,
2013-12-09 19:07:00,21.0,18.3,30.24,NNE,17,0.0,0.0,89,0.00,,,0.00,0.00,VWS V14.01,2013-12-10 01:07:00,
2013-12-09 19:10:00,20.9,18.2,30.24,NNE,17,0.0,0.0,89,0.00,,CLR,0.00,0.00,VWS V14.01,2013-12-10 01:10:00,
2013-12-09 19:12:00,20.9,18.2,30.24,NNE,17,0.0,0.0,89,0.00,,,0.00,0.00,VWS V14.01,2013-12-10 01:12:00,
2013-12-09 19:15:00,20.9,18.2,30.24,NNE,17,0.0,0.0,89,0.00,,CLR,0.00,0.00,VWS V14.01,2013-12-10 01:15:00,
2013-12-09 19:17:00,20.9,18.2,30.24,NNE,17,0.0,0.0,89,0.00,,,0.00,0.00,VWS V14.01,2013-12-10 01:17:00,
2013-12-09 19:20:00,20.9,18.2,30.24,NNE,17,0.0,1.0,89,0.00,,CLR,0.00,0.00,VWS V14.01,2013-12-10 01:20:00,
2013-12-09 19:22:00,20.9,18.2,30.24,NNE,17,0.0,0.0,89,0.00,,,0.00,0.00,VWS V14.01,2013-12-10 01:22:00,
2013-12-09 19:25:00,20.9,18.2,30.24,NNE,17,0.0,0.0,89,0.00,,CLR,0.00,0.00,VWS V14.01,2013-12-10 01:25:00,
2013-12-09 19:27:00,20.9,18.4,30.24,NNE,17,0.0,0.0,90,0.00,,,0.00,0.00,VWS V14.01,2013-12-10 01:27:00,
2013-12-09 19:30:00,20.9,18.4,30.23,NNE,17,0.0,0.0,90,0.00,,CLR,0.00,0.00,VWS V14.01,2013-12-10 01:30:00,
2013-12-09 19:32:00,20.8,18.1,30.23,NNE,17,0.0,0.0,89,0.00,,,0.00,0.00,VWS V14.01,2013-12-10 01:32:00,
2013-12-09 19:35:00,20.8,18.3,30.23,NNE,17,0.0,0.0,90,0.00,,CLR,0.00,0.00,VWS V14.01,2013-12-10 01:35:00,
2013-12-09 19:37:00,20.8,18.3,30.23,NNE,17,0.0,0.0,90,0.00,,,0.00,0.00,VWS V14.01,2013-12-10 01:37:00,
2013-12-09 19:40:00,20.8,18.3,30.23,NNE,17,0.0,1.0,90,0.00,,CLR,0.00,0.00,VWS V14.01,2013-12-10 01:40:00,
2013-12-09 19:42:00,20.8,18.3,30.23,NNE,17,0.0,0.0,90,0.00,,,0.00,0.00,VWS V14.01,2013-12-10 01:42:00,
2013-12-09 19:45:00,20.8,18.3,30.23,NNE,17,0.0,1.0,90,0.00,,CLR,0.00,0.00,VWS V14.01,2013-12-10 01:45:00,
2013-12-09 19:47:00,20.8,18.3,30.23,NNE,17,0.0,0.0,90,0.00,,,0.00,0.00,VWS V14.01,2013-12-10 01:47:00,
2013-12-09 19:50:00,20.8,18.3,30.23,NNE,17,0.0,1.0,90,0.00,,CLR,0.00,0.00,VWS V14.01,2013-12-10 01:50:00,
2013-12-09 19:52:00,20.8,18.3,30.23,NNE,17,0.0,0.0,90,0.00,,,0.00,0.00,VWS V14.01,2013-12-10 01:52:00,
2013-12-09 19:55:00,20.8,18.3,30.23,NNE,17,0.0,0.0,90,0.00,,CLR,0.00,0.00,VWS V14.01,2013-12-10 01:55:00,
2013-12-09 19:57:00,20.8,18.3,30.23,NNE,17,0.0,0.0,90,0.00,,,0.00,0.00,VWS V14.01,2013-12-10 01:57:00,
2013-12-09 20:00:00,20.8,18.3,30.24,NNE,17,0.0,0.0,90,0.00,,CLR,0.00,0.00,VWS V14.01,2013-12-10 02:00:00,
2013-12-09 20:02:00,20.7,18.2,30.24,NNE,17,0.0,1.0,90,0.00,,,0.00,0.00,VWS V14.01,2013-12-10 02:02:00,
2013-12-09 20:05:00,20.7,18.2,30.24,NNE,17,0.0,1.0,90,0.00,,CLR,0.00,0.00,VWS V14.01,2013-12-10 02:05:00,
2013-12-09 20:07:00,20.7,18.2,30.24,NNE,17,0.0,1.0,90,0.00,,,0.00,0.00,VWS V14.01,2013-12-10 02:07:00,
2013-12-09 20:10:00,20.7,18.2,30.24,NNE,17,0.0,1.0,90,0.00,,CLR,0.00,0.00,VWS V14.01,2013-12-10 02:10:00,
2013-12-09 20:12:00,20.7,18.2,30.24,NNE,17,0.0,0.0,90,0.00,,,0.00,0.00,VWS V14.01,2013-12-10 02:12:00,
2013-12-09 20:15:00,20.7,18.2,30.24,NNE,17,0.0,0.0,90,0.00,,CLR,0.00,0.00,VWS V14.01,2013-12-10 02:15:00,
2013-12-09 20:17:00,20.7,18.2,30.24,NNE,17,0.0,0.0,90,0.00,,,0.00,0.00,VWS V14.01,2013-12-10 02:17:00,
2013-12-09 20:20:00,20.7,18.2,30.24,NNE,17,0.0,0.0,90,0.00,,CLR,0.00,0.00,VWS V14.01,2013-12-10 02:20:00,
2013-12-09 20:22:00,20.7,18.2,30.24,NNE,17,0.0,1.0,90,0.00,,,0.00,0.00,VWS V14.01,2013-12-10 02:22:00,
2013-12-09 20:25:00,20.6,18.1,30.24,NNE,17,0.0,1.0,90,0.00,,CLR,0.00,0.00,VWS V14.01,2013-12-10 02:25:00,
2013-12-09 20:27:00,20.7,18.2,30.24,NNE,17,0.0,0.0,90,0.00,,,0.00,0.00,VWS V14.01,2013-12-10 02:27:00,
2013-12-09 20:30:00,20.6,18.1,30.25,NNE,17,0.0,0.0,90,0.00,,CLR,0.00,0.00,VWS V14.01,2013-12-10 02:30:00,
2013-12-09 20:32:00,20.6,18.1,30.25,WNW,303,0.0,3.0,90,0.00,,,0.00,0.00,VWS V14.01,2013-12-10 02:32:00,
2013-12-09 20:35:00,20.6,18.1,30.25,WNW,303,0.0,3.0,90,0.00,,CLR,0.00,0.00,VWS V14.01,2013-12-10 02:35:00,
2013-12-09 20:37:00,20.6,18.1,30.25,WNW,303,0.0,0.0,90,0.00,,,0.00,0.00,VWS V14.01,2013-12-10 02:37:00,
2013-12-09 20:40:00,20.6,18.1,30.25,WNW,303,0.0,0.0,90,0.00,,CLR,0.00,0.00,VWS V14.01,2013-12-10 02:40:00,
2013-12-09 20:42:00,20.6,18.1,30.25,WNW,303,0.0,0.0,90,0.00,,,0.00,0.00,VWS V14.01,2013-12-10 02:42:00,
2013-12-09 20:45:00,20.6,18.1,30.26,WNW,303,0.0,0.0,90,0.00,,CLR,0.00,0.00,VWS V14.01,2013-12-10 02:45:00,
2013-12-09 20:48:00,20.6,18.1,30.26,WNW,303,0.0,0.0,90,0.00,,,0.00,0.00,VWS V14.01,2013-12-10 02:48:00,
2013-12-09 20:50:00,20.6,18.1,30.26,WNW,303,0.0,1.0,90,0.00,,CLR,0.00,0.00,VWS V14.01,2013-12-10 02:50:00,
2013-12-09 20:53:00,20.6,18.1,30.26,WNW,303,0.0,0.0,90,0.00,,,0.00,0.00,VWS V14.01,2013-12-10 02:53:00,
2013-12-09 20:55:00,20.6,18.1,30.26,ENE,65,0.0,2.0,90,0.00,,CLR,0.00,0.00,VWS V14.01,2013-12-10 02:55:00,
2013-12-09 20:58:00,20.6,18.1,30.26,ENE,65,0.0,0.0,90,0.00,,,0.00,0.00,VWS V14.01,2013-12-10 02:58:00,
2013-12-09 21:00:00,20.5,18.0,30.26,ENE,65,0.0,0.0,90,0.00,,CLR,0.00,0.00,VWS V14.01,2013-12-10 03:00:00,
2013-12-09 21:03:00,20.5,18.0,30.26,ENE,65,0.0,0.0,90,0.00,,,0.00,0.00,VWS V14.01,2013-12-10 03:03:00,
2013-12-09 21:05:00,20.5,18.0,30.26,ENE,65,0.0,0.0,90,0.00,,CLR,0.00,0.00,VWS V14.01,2013-12-10 03:05:00,
2013-12-09 21:08:00,20.5,18.0,30.26,ENE,65,0.0,0.0,90,0.00,,,0.00,0.00,VWS V14.01,2013-12-10 03:08:00,
2013-12-09 21:10:00,20.5,18.0,30.26,ENE,65,0.0,0.0,90,0.00,,CLR,0.00,0.00,VWS V14.01,2013-12-10 03:10:00,
2013-12-09 21:13:00,20.5,18.0,30.26,ENE,65,0.0,0.0,90,0.00,,,0.00,0.00,VWS V14.01,2013-12-10 03:13:00,
2013-12-09 21:15:00,20.5,18.0,30.26,ENE,65,0.0,0.0,90,0.00,,CLR,0.00,0.00,VWS V14.01,2013-12-10 03:15:00,
2013-12-09 21:18:00,20.4,17.9,30.26,ENE,65,0.0,1.0,90,0.00,,,0.00,0.00,VWS V14.01,2013-12-10 03:18:00,
2013-12-09 21:20:00,20.4,17.9,30.26,ENE,65,0.0,1.0,90,0.00,,CLR,0.00,0.00,VWS V14.01,2013-12-10 03:20:00,
2013-12-09 21:23:00,20.4,17.9,30.26,ENE,65,1.0,1.0,90,0.00,,,0.00,0.00,VWS V14.01,2013-12-10 03:23:00,
2013-12-09 21:25:00,20.4,17.9,30.26,ENE,65,0.0,1.0,90,0.00,,CLR,0.00,0.00,VWS V14.01,2013-12-10 03:25:00,
2013-12-09 21:28:00,20.4,17.9,30.26,ENE,65,0.0,0.0,90,0.00,,,0.00,0.00,VWS V14.01,2013-12-10 03:28:00,
2013-12-09 21:30:00,20.4,17.9,30.26,ENE,65,0.0,0.0,90,0.00,,CLR,0.00,0.00,VWS V14.01,2013-12-10 03:30:00,
2013-12-09 21:33:00,20.4,17.9,30.26,ENE,65,0.0,0.0,90,0.00,,,0.00,0.00,VWS V14.01,2013-12-10 03:33:00,
2013-12-09 21:35:00,20.3,17.8,30.26,ENE,65,0.0,1.0,90,0.00,,CLR,0.00,0.00,VWS V14.01,2013-12-10 03:35:00,
2013-12-09 21:38:00,20.3,17.8,30.26,ENE,65,0.0,1.0,90,0.00,,,0.00,0.00,VWS V14.01,2013-12-10 03:38:00,
2013-12-09 21:40:00,20.3,18.1,30.26,West,278,0.0,2.0,91,0.00,,CLR,0.00,0.00,VWS V14.01,2013-12-10 03:40:00,
2013-12-09 21:43:00,20.3,18.1,30.26,West,278,2.0,2.0,91,0.00,,,0.00,0.00,VWS V14.01,2013-12-10 03:43:00,
2013-12-09 21:45:00,20.2,18.0,30.27,West,278,0.0,2.0,91,0.01,,CLR,0.01,0.00,VWS V14.01,2013-12-10 03:45:00,
2013-12-09 21:48:00,20.2,18.0,30.27,West,278,0.0,2.0,91,0.01,,,0.01,0.00,VWS V14.01,2013-12-10 03:48:00,
2013-12-09 21:50:00,20.2,18.0,30.27,West,278,1.0,2.0,91,0.01,,CLR,0.01,0.00,VWS V14.01,2013-12-10 03:50:00,
2013-12-09 21:53:00,20.2,18.0,30.27,West,278,0.0,1.0,91,0.01,,,0.01,0.00,VWS V14.01,2013-12-10 03:53:00,
2013-12-09 21:55:00,20.2,18.0,30.27,West,278,0.0,2.0,91,0.01,,CLR,0.01,0.00,VWS V14.01,2013-12-10 03:55:00,
2013-12-09 21:58:00,20.1,17.9,30.27,West,278,0.0,0.0,91,0.01,,,0.01,0.00,VWS V14.01,2013-12-10 03:58:00,
2013-12-09 22:00:00,20.1,17.9,30.27,West,278,0.0,0.0,91,0.01,,CLR,0.01,0.00,VWS V14.01,2013-12-10 04:00:00,
2013-12-09 22:03:00,20.1,17.9,30.27,West,278,0.0,0.0,91,0.01,,,0.01,0.00,VWS V14.01,2013-12-10 04:03:00,
2013-12-09 22:05:00,20.0,17.8,30.27,West,278,0.0,0.0,91,0.01,,CLR,0.01,0.00,VWS V14.01,2013-12-10 04:05:00,
2013-12-09 22:08:00,20.0,17.8,30.27,West,278,0.0,0.0,91,0.01,,,0.01,0.00,VWS V14.01,2013-12-10 04:08:00,
2013-12-09 22:10:00,20.0,17.8,30.27,West,278,0.0,0.0,91,0.01,,CLR,0.01,0.00,VWS V14.01,2013-12-10 04:10:00,
2013-12-09 22:13:00,20.0,17.8,30.27,West,278,0.0,0.0,91,0.02,,,0.02,0.00,VWS V14.01,2013-12-10 04:13:00,
2013-12-09 22:15:00,20.0,17.8,30.27,West,278,0.0,0.0,91,0.02,,CLR,0.02,0.00,VWS V14.01,2013-12-10 04:15:00,
2013-12-09 22:18:00,20.0,17.8,30.27,West,278,0.0,0.0,91,0.02,,,0.02,0.00,VWS V14.01,2013-12-10 04:18:00,
2013-12-09 22:20:00,19.9,17.7,30.27,West,278,0.0,0.0,91,0.02,,CLR,0.02,0.00,VWS V14.01,2013-12-10 04:20:00,
2013-12-09 22:23:00,19.9,18.0,30.27,West,278,0.0,0.0,92,0.02,,,0.02,0.00,VWS V14.01,2013-12-10 04:23:00,
2013-12-09 22:25:00,19.9,18.0,30.27,West,278,0.0,1.0,92,0.02,,CLR,0.02,0.00,VWS V14.01,2013-12-10 04:25:00,
2013-12-09 22:28:00,19.9,17.7,30.27,West,278,0.0,1.0,91,0.02,,,0.02,0.00,VWS V14.01,2013-12-10 04:28:00,
2013-12-09 22:30:00,19.9,18.0,30.27,West,278,0.0,1.0,92,0.03,,CLR,0.03,0.00,VWS V14.01,2013-12-10 04:30:00,
2013-12-09 22:33:00,19.9,18.0,30.27,West,278,0.0,0.0,92,0.03,,,0.03,0.00,VWS V14.01,2013-12-10 04:33:00,
2013-12-09 22:35:00,19.9,18.0,30.27,West,278,0.0,0.0,92,0.03,,CLR,0.03,0.00,VWS V14.01,2013-12-10 04:35:00,
2013-12-09 22:38:00,19.9,18.0,30.27,West,278,0.0,0.0,92,0.03,,,0.03,0.00,VWS V14.01,2013-12-10 04:38:00,
2013-12-09 22:40:00,19.9,18.0,30.27,West,278,0.0,0.0,92,0.03,,CLR,0.03,0.00,VWS V14.01,2013-12-10 04:40:00,
2013-12-09 22:43:00,19.9,18.0,30.27,West,278,0.0,0.0,92,0.03,,,0.03,0.00,VWS V14.01,2013-12-10 04:43:00,
2013-12-09 22:45:00,19.9,18.0,30.27,West,278,0.0,0.0,92,0.03,,CLR,0.03,0.00,VWS V14.01,2013-12-10 04:45:00,
2013-12-09 22:48:00,19.9,18.0,30.27,West,278,0.0,0.0,92,0.02,,,0.03,0.00,VWS V14.01,2013-12-10 04:48:00,
2013-12-09 22:50:00,19.9,18.0,30.27,WNW,294,0.0,2.0,92,0.03,,CLR,0.04,0.00,VWS V14.01,2013-12-10 04:50:00,
2013-12-09 22:53:00,19.9,18.0,30.27,WNW,294,0.0,0.0,92,0.03,,,0.04,0.00,VWS V14.01,2013-12-10 04:53:00,
2013-12-09 22:55:00,19.9,18.0,30.27,WNW,294,0.0,1.0,92,0.03,,CLR,0.04,0.00,VWS V14.01,2013-12-10 04:55:00,
2013-12-09 22:58:00,19.8,17.9,30.27,WNW,294,0.0,0.0,92,0.03,,,0.04,0.00,VWS V14.01,2013-12-10 04:58:00,
2013-12-09 23:00:00,19.8,17.9,30.27,WNW,294,0.0,0.0,92,0.03,,CLR,0.04,0.00,VWS V14.01,2013-12-10 05:00:00,
2013-12-09 23:01:00,19.8,17.9,30.27,WNW,294,0.0,0.0,92,0.03,,,0.04,0.00,VWS V14.01,2013-12-10 05:01:00,
2013-12-09 23:05:00,19.8,17.9,30.27,NE,40,0.0,0.0,92,0.03,,CLR,0.04,0.00,VWS V14.01,2013-12-10 05:05:00,
2013-12-09 23:06:00,19.8,17.9,30.27,NE,40,0.0,0.0,92,0.03,,,0.04,0.00,VWS V14.01,2013-12-10 05:06:00,
2013-12-09 23:07:00,19.8,17.9,30.27,NE,40,0.0,0.0,92,0.03,,,0.04,0.00,VWS V14.01,2013-12-10 05:07:00,
2013-12-09 23:10:00,19.8,17.9,30.27,NE,40,0.0,0.0,92,0.03,,CLR,0.04,0.00,VWS V14.01,2013-12-10 05:10:00,
2013-12-09 23:12:00,19.8,17.9,30.27,NE,40,0.0,0.0,92,0.03,,,0.04,0.00,VWS V14.01,2013-12-10 05:12:00,
2013-12-09 23:15:00,19.8,17.9,30.27,NE,40,0.0,0.0,92,0.03,,CLR,0.04,0.00,VWS V14.01,2013-12-10 05:15:00,
2013-12-09 23:16:00,19.8,17.9,30.27,NE,40,0.0,0.0,92,0.03,,,0.05,0.00,VWS V14.01,2013-12-10 05:16:00,
2013-12-09 23:20:00,19.8,17.9,30.27,West,274,0.0,1.0,92,0.03,,CLR,0.05,0.00,VWS V14.01,2013-12-10 05:20:00,
2013-12-09 23:22:00,19.8,17.9,30.27,West,274,0.0,0.0,92,0.03,,,0.05,0.00,VWS V14.01,2013-12-10 05:22:00,
2013-12-09 23:25:00,19.8,17.9,30.27,West,274,0.0,1.0,92,0.03,,CLR,0.05,0.00,VWS V14.01,2013-12-10 05:25:00,
2013-12-09 23:27:00,19.8,17.9,30.27,West,274,0.0,0.0,92,0.03,,,0.05,0.00,VWS V14.01,2013-12-10 05:27:00,
2013-12-09 23:30:00,19.8,17.9,30.28,West,280,1.0,1.0,92,0.03,,CLR,0.05,0.00,VWS V14.01,2013-12-10 05:30:00,
2013-12-09 23:32:00,19.8,17.9,30.28,WNW,299,0.0,1.0,92,0.02,,,0.05,0.00,VWS V14.01,2013-12-10 05:32:00,
2013-12-09 23:35:00,19.7,17.8,30.28,WNW,299,0.0,1.0,92,0.02,,CLR,0.05,0.00,VWS V14.01,2013-12-10 05:35:00,
2013-12-09 23:37:00,19.7,17.8,30.28,WNW,299,0.0,0.0,92,0.02,,,0.05,0.00,VWS V14.01,2013-12-10 05:37:00,
2013-12-09 23:40:00,19.7,17.8,30.28,NNW,327,0.0,5.0,92,0.02,,CLR,0.05,0.00,VWS V14.01,2013-12-10 05:40:00,
2013-12-09 23:42:00,19.7,17.8,30.28,NNW,328,0.0,0.0,92,0.02,,,0.05,0.00,VWS V14.01,2013-12-10 05:42:00,
2013-12-09 23:45:00,19.6,17.7,30.28,WNW,284,0.0,2.0,92,0.02,,CLR,0.05,0.00,VWS V14.01,2013-12-10 05:45:00,
2013-12-09 23:47:00,19.6,17.7,30.28,WNW,284,0.0,1.0,92,0.02,,,0.05,0.00,VWS V14.01,2013-12-10 05:47:00,
2013-12-09 23:50:00,19.5,17.6,30.28,WNW,293,0.0,3.0,92,0.02,,CLR,0.05,0.00,VWS V14.01,2013-12-10 05:50:00,
2013-12-09 23:52:00,19.5,17.6,30.28,WNW,293,0.0,0.0,92,0.01,,,0.05,0.00,VWS V14.01,2013-12-10 05:52:00,
2013-12-09 23:55:00,19.4,17.5,30.28,West,259,0.0,3.0,92,0.01,,CLR,0.05,0.00,VWS V14.01,2013-12-10 05:55:00,
2013-12-09 23:57:00,19.4,17.5,30.28,NW,311,0.0,0.0,92,0.01,,,0.05,0.00,VWS V14.01,2013-12-10 05:57:00,